Meteo Giornale » Osservazioni meteo Croazia » Osijek

ore: 08:00 - Osservazioni Meteo Osijek
Lat. 45° 28' N Lon. 18° 49' E Alt. 89 metri s.l.m.

sereno Europe/Zagreb

8 °C

Sereno

Temp. 24 Ore

7 °C

19 °C

Nord

5.5 Km/h

Dew point 7 °C

Umidità 93 %

Visibilità  10 Km

Il sole sorge alle ore 06:33

Il sole tramonta alle ore 18:40

Data e Ora Cielo e Fenomeni T °C DP °C Um. % Pres. hPa Vis. km Vento km/h
Oggi h: 08:00 sereno Sereno 8 7 93 1016 10 N 5.5
Oggi h: 07:30 sereno Sereno 7 6 93 1016 10 S 9.3
Oggi h: 07:00 sereno Sereno 7 6 93 1016 10 S 7.4
Oggi h: 06:30 sereno Sereno 7 6 93 1016 10 S 7.4
Oggi h: 06:00 sereno Sereno 7 6 93 1015 10 S/SE 9.3
Oggi h: 05:30 sereno Sereno 7 6 93 1016 10 N 5.5
Oggi h: 05:00 sereno Sereno 7 6 93 1015 10 S 11.1
Oggi h: 04:30 sereno Sereno 7 6 93 1016 10 S 9.3
Oggi h: 04:00 sereno Sereno 7 6 93 1016 10 S 9.3
Oggi h: 03:30 sereno Sereno 7 6 93 1017 10 S 9.3
Oggi h: 03:00 sereno Sereno 7 6 93 1017 10 S 11.1
Oggi h: 02:30 sereno Sereno 7 6 93 1017 10 S 13
Oggi h: 02:00 sereno Sereno 8 7 93 1017 10 S 11.1
Oggi h: 01:30 sereno Sereno 8 7 93 1018 10 S 11.1
Oggi h: 01:00 sereno Sereno 8 7 93 1018 10 S 14.8
Ieri h: 23:30 sereno Sereno 9 7 87 1019 10 S 14.8
Ieri h: 23:00 sereno Sereno 8 7 93 1019 10 S 11.1
Ieri h: 22:30 sereno Sereno 9 7 87 1019 10 S 7.4
Ieri h: 22:00 sereno Sereno 9 7 87 1019 10 S/SE 7.4
Ieri h: 21:30 sereno Sereno 10 8 87 1020 10 S 9.3
Ieri h: 20:30 sereno Sereno 11 8 81 1020 10 S 7.4
Ieri h: 20:00 sereno Sereno 12 9 81 1020 10 S/SO 9.3
Ieri h: 19:30 sereno Sereno 13 9 76 1020 10 S/SO 11.1
Ieri h: 19:00 sereno Sereno 14 8 67 1020 10 N 3.7
Ieri h: 18:30 sereno Sereno 17 9 59 1020 10 N 5.5
Ieri h: 18:00 sereno Sereno 18 7 48 1020 10 O 9.3
Ieri h: 17:30 sereno Sereno 18 7 48 1021 10 O 13
Ieri h: 16:30 poco_nuvoloso Poco Nuvoloso 19 7 45 1021 10 O 11.1
Ieri h: 16:00 poco_nuvoloso Poco Nuvoloso 18 7 48 1022 10 O 7.4
Ieri h: 15:30 molto_nuvoloso Molto Nuvoloso 18 8 51 1022 10 SO 7.4
Ieri h: 15:00 molto_nuvoloso Molto Nuvoloso 17 8 55 1023 10 O/NO 14.8
Ieri h: 14:30 molto_nuvoloso Molto Nuvoloso 18 8 51 1023 10 O 9.3
Ieri h: 14:00 nuvoloso Nuvoloso 17 8 55 1023 10 O/NO 11.1
Ieri h: 13:30 nuvoloso Nuvoloso 17 8 55 1023 10 O/NO 9.3
Ieri h: 13:00 poco_nuvoloso Poco Nuvoloso 17 8 55 1024 10 O 11.1
Ieri h: 12:30 poco_nuvoloso Poco Nuvoloso 16 8 58 1024 10 N 5.5
Ieri h: 12:00 poco_nuvoloso Poco Nuvoloso 15 8 62 1024 10 O/SO 9.3
Ieri h: 11:30 poco_nuvoloso Poco Nuvoloso 14 9 71 1024 10 O/SO 13
Ieri h: 11:00 poco_nuvoloso Poco Nuvoloso 13 9 76 1025 10 O 11.1
Ieri h: 10:30 foschia Foschia 12 10 87 1025 4 O 9.3
Ieri h: 10:00 foschia Foschia 10 10 100 1025 2 O 9.3
Ieri h: 09:30 foschia Foschia 9 9 100 1025 1 N 5.5
Ieri h: 09:00 nebbia Nebbia 8 8 100 1025 0.3 O/SO 7.4